INTELSAT 1R (IS-1R)

Last updated on Thu Nov 21 2024 00:02:40 GMT+0000 (Coordinated Universal Time)

1 26608U 00072A 24325.07594873 -.00000235 00000+0 00000+0 0 9999 2 26608 6.6405 71.0120 0007387 181.5828 169.6191 0.98978347 35549
UTC large
Height (km)
Speed (km/s)
/
Latitude / Longitude
Inclination (degrees)
Orbital Period (minutes)
Azimuth
Elevation
Range (km)
Doppler Factor

Next 0 passes for location: London (51.5072 / 0.1276)

Sorry there are no passes over London.